MUOS-4

Last updated on Wed Sep 17 2025 00:02:49 GMT+0000 (Coordinated Universal Time)

1 40887U 15044A 25259.52713843 -.00000110 00000+0 00000+0 0 9998 2 40887 3.8259 39.8942 0052501 3.1467 217.4734 1.00271603 36811
UTC large
Height (km)
Speed (km/s)
/
Latitude / Longitude
Inclination (degrees)
Orbital Period (minutes)
Azimuth
Elevation
Range (km)
Doppler Factor

Next 0 passes for location: London (51.5072 / 0.1276)

Sorry there are no passes over London.